Time,TemperatureF,DewpointF,PressureIn,WindDirection,WindDirectionDegrees,WindSpeedMPH,WindSpeedGustMPH,Humidity,HourlyPrecipIn,Conditions,Clouds,dailyrainin,SolarRadiationWatts/m^2,SoftwareType,DateUTC
2013-05-17 00:01:00,65.2,23.0,29.68,SE,138,1.0,5.0,20,0.00,,,0.00,0,weatherlink.com 1.10,2013-05-17 07:01:00,
2013-05-17 00:14:00,65.0,23.0,29.68,SE,138,2.0,4.0,20,0.00,,,0.00,0,weatherlink.com 1.10,2013-05-17 07:14:00,
2013-05-17 00:29:00,64.9,24.0,29.67,SE,133,3.0,4.0,21,0.00,,,0.00,0,weatherlink.com 1.10,2013-05-17 07:29:00,
2013-05-17 00:44:00,65.3,24.0,29.68,SE,124,3.0,5.0,21,0.00,,,0.00,0,weatherlink.com 1.10,2013-05-17 07:44:00,
2013-05-17 00:59:00,65.3,25.0,29.67,SE,127,1.0,4.0,22,0.00,,,0.00,0,weatherlink.com 1.10,2013-05-17 07:59:00,
2013-05-17 01:14:00,65.0,26.0,29.67,SE,129,1.0,4.0,23,0.00,,,0.00,0,weatherlink.com 1.10,2013-05-17 08:14:00,
2013-05-17 01:30:00,64.2,27.0,29.66,SE,129,1.0,3.0,24,0.00,,,0.00,0,weatherlink.com 1.10,2013-05-17 08:30:00,
2013-05-17 02:00:00,62.5,26.0,29.66,SE,129,0.0,3.0,25,0.00,,,0.00,0,weatherlink.com 1.10,2013-05-17 09:00:00,
2013-05-17 02:15:00,62.7,27.0,29.67,SE,125,1.0,3.0,26,0.00,,,0.00,0,weatherlink.com 1.10,2013-05-17 09:15:00,
2013-05-17 02:30:00,62.7,27.0,29.67,SE,125,0.0,3.0,26,0.00,,,0.00,0,weatherlink.com 1.10,2013-05-17 09:30:00,
2013-05-17 02:45:00,62.1,28.0,29.67,SE,125,1.0,3.0,27,0.00,,,0.00,0,weatherlink.com 1.10,2013-05-17 09:45:00,
2013-05-17 03:00:00,62.1,28.0,29.67,SE,125,1.0,3.0,27,0.00,,,0.00,0,weatherlink.com 1.10,2013-05-17 10:00:00,
2013-05-17 03:16:00,62.4,28.0,29.67,SE,125,1.0,3.0,27,0.00,,,0.00,0,weatherlink.com 1.10,2013-05-17 10:16:00,
2013-05-17 03:30:00,62.1,28.0,29.67,SE,125,0.0,3.0,27,0.00,,,0.00,0,weatherlink.com 1.10,2013-05-17 10:30:00,
2013-05-17 03:45:00,61.0,27.0,29.67,SE,124,0.0,2.0,27,0.00,,,0.00,0,weatherlink.com 1.10,2013-05-17 10:45:00,
2013-05-17 04:00:00,58.6,26.0,29.67,ESE,122,1.0,3.0,29,0.00,,,0.00,0,weatherlink.com 1.10,2013-05-17 11:00:00,
2013-05-17 04:15:00,57.4,27.0,29.67,ESE,105,2.0,4.0,31,0.00,,,0.00,0,weatherlink.com 1.10,2013-05-17 11:15:00,
2013-05-17 04:30:00,57.5,27.0,29.67,East,86,0.0,5.0,31,0.00,,,0.00,0,weatherlink.com 1.10,2013-05-17 11:30:00,
2013-05-17 04:45:00,57.8,27.0,29.67,East,86,1.0,1.0,31,0.00,,,0.00,0,weatherlink.com 1.10,2013-05-17 11:45:00,
2013-05-17 05:00:00,58.1,28.0,29.66,ESE,108,1.0,3.0,32,0.00,,,0.00,0,weatherlink.com 1.10,2013-05-17 12:00:00,
2013-05-17 05:16:00,58.6,28.0,29.67,ESE,122,1.0,2.0,31,0.00,,,0.00,0,weatherlink.com 1.10,2013-05-17 12:16:00,
2013-05-17 05:31:00,59.8,28.0,29.68,ESE,122,0.0,4.0,30,0.00,,,0.00,9,weatherlink.com 1.10,2013-05-17 12:31:00,
2013-05-17 05:46:00,61.2,29.0,29.68,ESE,122,1.0,5.0,29,0.00,,,0.00,19,weatherlink.com 1.10,2013-05-17 12:46:00,
2013-05-17 06:01:00,62.4,29.0,29.68,SE,129,1.0,7.0,28,0.00,,,0.00,44,weatherlink.com 1.10,2013-05-17 13:01:00,
2013-05-17 06:16:00,64.0,29.0,29.69,SE,129,0.0,3.0,27,0.00,,,0.00,86,weatherlink.com 1.10,2013-05-17 13:16:00,
2013-05-17 06:31:00,65.2,29.0,29.69,SSW,194,3.0,7.0,26,0.00,,,0.00,139,weatherlink.com 1.10,2013-05-17 13:31:00,
2013-05-17 06:46:00,66.9,29.0,29.69,SSW,204,4.0,8.0,24,0.00,,,0.00,199,weatherlink.com 1.10,2013-05-17 13:46:00,
2013-05-17 07:01:00,68.4,27.0,29.69,SW,223,4.0,12.0,21,0.00,,,0.00,251,weatherlink.com 1.10,2013-05-17 14:01:00,
2013-05-17 07:16:00,69.5,29.0,29.69,WSW,252,7.0,12.0,22,0.00,,,0.00,304,weatherlink.com 1.10,2013-05-17 14:16:00,
2013-05-17 07:31:00,70.1,28.0,29.68,SSW,203,4.0,11.0,21,0.00,,,0.00,364,weatherlink.com 1.10,2013-05-17 14:31:00,
2013-05-17 07:46:00,71.5,28.0,29.68,SSW,194,4.0,15.0,20,0.00,,,0.00,413,weatherlink.com 1.10,2013-05-17 14:46:00,
2013-05-17 08:01:00,72.9,28.0,29.68,SW,227,7.0,9.0,19,0.00,,,0.00,459,weatherlink.com 1.10,2013-05-17 15:01:00,
2013-05-17 08:16:00,73.2,28.0,29.69,SW,216,11.0,14.0,19,0.00,,,0.00,522,weatherlink.com 1.10,2013-05-17 15:16:00,
2013-05-17 08:31:00,73.3,29.0,29.69,SW,221,9.0,12.0,19,0.00,,,0.00,568,weatherlink.com 1.10,2013-05-17 15:31:00,
2013-05-17 08:46:00,74.5,25.0,29.69,South,178,4.0,14.0,16,0.00,,,0.00,617,weatherlink.com 1.10,2013-05-17 15:46:00,
2013-05-17 09:01:00,74.9,19.0,29.70,SW,214,14.0,18.0,12,0.00,,,0.00,671,weatherlink.com 1.10,2013-05-17 16:01:00,
2013-05-17 09:16:00,75.4,19.0,29.70,South,191,2.0,15.0,12,0.00,,,0.00,715,weatherlink.com 1.10,2013-05-17 16:16:00,
2013-05-17 09:32:00,75.5,17.0,29.70,SW,218,14.0,18.0,11,0.00,,,0.00,758,weatherlink.com 1.10,2013-05-17 16:32:00,
2013-05-17 09:46:00,76.6,18.0,29.70,SSE,154,6.0,14.0,11,0.00,,,0.00,796,weatherlink.com 1.10,2013-05-17 16:46:00,
2013-05-17 10:02:00,78.0,17.0,29.70,SE,139,6.0,11.0,10,0.00,,,0.00,828,weatherlink.com 1.10,2013-05-17 17:02:00,
2013-05-17 10:17:00,78.2,19.0,29.70,WSW,238,7.0,12.0,11,0.00,,,0.00,851,weatherlink.com 1.10,2013-05-17 17:17:00,
2013-05-17 10:32:00,78.7,22.0,29.70,SSE,157,7.0,13.0,12,0.00,,,0.00,877,weatherlink.com 1.10,2013-05-17 17:32:00,
2013-05-17 10:47:00,80.3,21.0,29.70,SSW,207,6.0,12.0,11,0.00,,,0.00,902,weatherlink.com 1.10,2013-05-17 17:47:00,
2013-05-17 11:02:00,80.4,16.0,29.69,SSE,149,6.0,13.0,9,0.00,,,0.00,935,weatherlink.com 1.10,2013-05-17 18:02:00,
2013-05-17 11:18:00,81.6,12.0,29.69,SSW,212,3.0,11.0,7,0.00,,,0.00,960,weatherlink.com 1.10,2013-05-17 18:18:00,
2013-05-17 11:32:00,80.7,11.0,29.68,SW,219,9.0,18.0,7,0.00,,,0.00,972,weatherlink.com 1.10,2013-05-17 18:32:00,
2013-05-17 11:48:00,82.2,12.0,29.68,SSE,165,8.0,10.0,7,0.00,,,0.00,993,weatherlink.com 1.10,2013-05-17 18:48:00,
2013-05-17 12:02:00,81.7,12.0,29.68,SSE,162,5.0,14.0,7,0.00,,,0.00,995,weatherlink.com 1.10,2013-05-17 19:02:00,
2013-05-17 12:17:00,81.9,12.0,29.68,SSW,212,7.0,22.0,7,0.00,,,0.00,997,weatherlink.com 1.10,2013-05-17 19:17:00,
2013-05-17 12:32:00,82.4,12.0,29.67,SW,217,5.0,16.0,7,0.00,,,0.00,1000,weatherlink.com 1.10,2013-05-17 19:32:00,
2013-05-17 12:47:00,81.4,11.0,29.67,SSW,205,5.0,17.0,7,0.00,,,0.00,1000,weatherlink.com 1.10,2013-05-17 19:47:00,
2013-05-17 13:02:00,83.0,5.0,29.67,SSW,192,4.0,17.0,5,0.00,,,0.00,991,weatherlink.com 1.10,2013-05-17 20:02:00,
2013-05-17 13:17:00,83.3,9.0,29.66,SE,140,10.0,12.0,6,0.00,,,0.00,974,weatherlink.com 1.10,2013-05-17 20:17:00,
2013-05-17 13:33:00,84.4,10.0,29.66,SE,134,8.0,12.0,6,0.00,,,0.00,960,weatherlink.com 1.10,2013-05-17 20:33:00,
2013-05-17 13:47:00,84.5,14.0,29.65,South,176,5.0,13.0,7,0.00,,,0.00,933,weatherlink.com 1.10,2013-05-17 20:47:00,
2013-05-17 14:02:00,84.0,19.0,29.64,SW,224,8.0,15.0,9,0.00,,,0.00,909,weatherlink.com 1.10,2013-05-17 21:02:00,
2013-05-17 14:17:00,84.4,17.0,29.64,SW,219,10.0,15.0,8,0.00,,,0.00,884,weatherlink.com 1.10,2013-05-17 21:17:00,
2013-05-17 14:32:00,84.2,19.0,29.64,WSW,241,5.0,13.0,9,0.00,,,0.00,853,weatherlink.com 1.10,2013-05-17 21:32:00,
2013-05-17 14:47:00,84.4,20.0,29.63,WSW,237,8.0,17.0,9,0.00,,,0.00,814,weatherlink.com 1.10,2013-05-17 21:47:00,
2013-05-17 15:02:00,83.9,16.0,29.62,SSW,207,7.0,18.0,8,0.00,,,0.00,780,weatherlink.com 1.10,2013-05-17 22:02:00,
2013-05-17 15:17:00,84.1,19.0,29.62,SSW,212,8.0,19.0,9,0.00,,,0.00,735,weatherlink.com 1.10,2013-05-17 22:17:00,
2013-05-17 15:32:00,84.3,19.0,29.62,SSW,213,14.0,14.0,9,0.00,,,0.00,694,weatherlink.com 1.10,2013-05-17 22:32:00,
2013-05-17 15:48:00,83.2,19.0,29.62,West,270,5.0,18.0,9,0.00,,,0.00,650,weatherlink.com 1.10,2013-05-17 22:48:00,
2013-05-17 16:02:00,84.1,19.0,29.61,SW,215,7.0,18.0,9,0.00,,,0.00,608,weatherlink.com 1.10,2013-05-17 23:02:00,
2013-05-17 16:17:00,83.0,23.0,29.62,SSW,211,7.0,13.0,11,0.00,,,0.00,557,weatherlink.com 1.10,2013-05-17 23:17:00,
2013-05-17 16:33:00,82.5,21.0,29.62,WSW,243,7.0,15.0,10,0.00,,,0.00,504,weatherlink.com 1.10,2013-05-17 23:33:00,
2013-05-17 16:48:00,82.8,23.0,29.62,SSW,205,10.0,14.0,11,0.00,,,0.00,448,weatherlink.com 1.10,2013-05-17 23:48:00,
2013-05-17 17:03:00,82.7,23.0,29.62,WSW,243,8.0,16.0,11,0.00,,,0.00,396,weatherlink.com 1.10,2013-05-18 00:03:00,
2013-05-17 17:18:00,82.3,23.0,29.62,West,276,8.0,15.0,11,0.00,,,0.00,338,weatherlink.com 1.10,2013-05-18 00:18:00,
2013-05-17 17:34:00,81.8,22.0,29.62,SW,231,10.0,18.0,11,0.00,,,0.00,278,weatherlink.com 1.10,2013-05-18 00:34:00,
2013-05-17 17:47:00,81.2,22.0,29.62,SW,214,7.0,17.0,11,0.00,,,0.00,237,weatherlink.com 1.10,2013-05-18 00:47:00,
2013-05-17 18:02:00,80.3,23.0,29.62,SW,215,12.0,17.0,12,0.00,,,0.00,123,weatherlink.com 1.10,2013-05-18 01:02:00,
2013-05-17 18:17:00,78.8,20.0,29.62,WSW,245,7.0,17.0,11,0.00,,,0.00,37,weatherlink.com 1.10,2013-05-18 01:17:00,
2013-05-17 18:32:00,77.8,21.0,29.63,SW,217,11.0,14.0,12,0.00,,,0.00,56,weatherlink.com 1.10,2013-05-18 01:32:00,
2013-05-17 18:47:00,77.0,22.0,29.64,SW,225,7.0,13.0,13,0.00,,,0.00,16,weatherlink.com 1.10,2013-05-18 01:47:00,
2013-05-17 19:02:00,75.8,21.0,29.64,SW,215,9.0,11.0,13,0.00,,,0.00,7,weatherlink.com 1.10,2013-05-18 02:02:00,
2013-05-17 19:17:00,74.8,22.0,29.65,SSW,208,5.0,9.0,14,0.00,,,0.00,0,weatherlink.com 1.10,2013-05-18 02:17:00,
2013-05-17 19:32:00,73.7,23.0,29.66,SW,216,6.0,10.0,15,0.00,,,0.00,0,weatherlink.com 1.10,2013-05-18 02:32:00,
2013-05-17 19:49:00,72.8,24.0,29.66,SSW,212,5.0,9.0,16,0.00,,,0.00,0,weatherlink.com 1.10,2013-05-18 02:49:00,
2013-05-17 20:04:00,72.1,25.0,29.66,SSW,195,0.0,6.0,17,0.00,,,0.00,0,weatherlink.com 1.10,2013-05-18 03:04:00,
2013-05-17 20:17:00,71.0,25.0,29.67,South,191,0.0,3.0,18,0.00,,,0.00,0,weatherlink.com 1.10,2013-05-18 03:17:00,
2013-05-17 20:32:00,70.1,25.0,29.67,South,191,0.0,1.0,18,0.00,,,0.00,0,weatherlink.com 1.10,2013-05-18 03:32:00,
2013-05-17 20:47:00,68.4,24.0,29.68,South,191,0.0,1.0,19,0.00,,,0.00,0,weatherlink.com 1.10,2013-05-18 03:47:00,
2013-05-17 21:02:00,67.0,25.0,29.68,South,191,0.0,1.0,20,0.00,,,0.00,0,weatherlink.com 1.10,2013-05-18 04:02:00,
2013-05-17 21:18:00,66.5,24.0,29.69,South,191,0.0,2.0,20,0.00,,,0.00,0,weatherlink.com 1.10,2013-05-18 04:18:00,
2013-05-17 21:33:00,66.6,24.0,29.69,South,174,0.0,2.0,20,0.00,,,0.00,0,weatherlink.com 1.10,2013-05-18 04:33:00,
2013-05-17 21:48:00,67.6,26.0,29.69,SSE,162,1.0,7.0,21,0.00,,,0.00,0,weatherlink.com 1.10,2013-05-18 04:48:00,
2013-05-17 22:03:00,68.4,27.0,29.70,South,185,0.0,8.0,21,0.00,,,0.00,0,weatherlink.com 1.10,2013-05-18 05:03:00,
2013-05-17 22:18:00,68.0,28.0,29.70,SSE,161,0.0,5.0,22,0.00,,,0.00,0,weatherlink.com 1.10,2013-05-18 05:18:00,
2013-05-17 22:33:00,67.7,28.0,29.70,South,186,3.0,6.0,23,0.00,,,0.00,0,weatherlink.com 1.10,2013-05-18 05:33:00,
2013-05-17 22:48:00,67.1,29.0,29.71,SSW,198,2.0,4.0,24,0.00,,,0.00,0,weatherlink.com 1.10,2013-05-18 05:48:00,
2013-05-17 23:03:00,66.6,29.0,29.70,South,179,1.0,10.0,24,0.00,,,0.00,0,weatherlink.com 1.10,2013-05-18 06:03:00,
2013-05-17 23:18:00,66.1,28.0,29.70,SSE,155,1.0,4.0,24,0.00,,,0.00,0,weatherlink.com 1.10,2013-05-18 06:18:00,
2013-05-17 23:33:00,65.7,27.0,29.70,SSE,157,0.0,6.0,23,0.00,,,0.00,0,weatherlink.com 1.10,2013-05-18 06:33:00,
2013-05-17 23:48:00,65.8,27.0,29.70,SE,141,0.0,6.0,23,0.00,,,0.00,0,weatherlink.com 1.10,2013-05-18 06:48:00,